This is the latest recevied weather packets stored in our database for station/object KN6KS. If no packets are shown the sender has not sent any weather packets the latest 1 day(s).
| Time | Temp. | Humidity | Pressure | Rain* | Wind** | Luminosity | Snow |
|---|---|---|---|---|---|---|---|
| 1778038105 | 12.78° C | 66% | 1013.9 hPa | 0 mm | - | 0 W/m² | - |
| 1778037802 | 12.78° C | 66% | 1013.8 hPa | 0 mm | - | 0 W/m² | - |
| 1778037499 | 12.78° C | 66% | 1014 hPa | 0 mm | - | 0 W/m² | - |
| 1778036894 | 12.78° C | 65% | 1013.5 hPa | 0 mm | - | 0 W/m² | - |
| 1778036592 | 12.78° C | 65% | 1013.8 hPa | 0 mm | - | 0 W/m² | - |
| 1778036288 | 12.78° C | 65% | 1013.4 hPa | 0 mm | - | 0 W/m² | - |
| 1778035682 | 13.33° C | 65% | 1013.4 hPa | 0 mm | - | 0 W/m² | - |
| 1778035378 | 13.33° C | 64% | 1013.4 hPa | 0 mm | - | 1 W/m² | - |
| 1778035074 | 13.33° C | 64% | 1013.3 hPa | 0 mm | - | 3 W/m² | - |
| 1778034772 | 13.33° C | 64% | 1013 hPa | 0 mm | - | 6 W/m² | - |
| 1778034468 | 13.33° C | 63% | 1013.2 hPa | 0 mm | - | 10 W/m² | - |
| 1778034166 | 13.89° C | 63% | 1013.1 hPa | 0 mm | - | 13 W/m² | - |
| 1778033864 | 13.89° C | 62% | 1013 hPa | 0 mm | - | 17 W/m² | - |
| 1778033257 | 13.89° C | 61% | 1012.8 hPa | 0 mm | - | 26 W/m² | - |
| 1778032653 | 14.44° C | 61% | 1012.7 hPa | 0 mm | - | 35 W/m² | - |
| 1778032350 | 14.44° C | 60% | 1012.9 hPa | 0 mm | - | 39 W/m² | - |
| 1778032047 | 14.44° C | 58% | 1012.8 hPa | 0 mm | - | 50 W/m² | - |
| 1778031743 | 15° C | 59% | 1012.6 hPa | 0 mm | - | 52 W/m² | - |
| 1778031138 | 15° C | 56% | 1012.7 hPa | 0 mm | - | 58 W/m² | - |
| 1778030834 | 15° C | 56% | 1012.8 hPa | 0 mm | - | 107 W/m² | - |
| 1778030531 | 15° C | 56% | 1012.9 hPa | 0 mm | - | 134 W/m² | - |
| 1778030228 | 15° C | 58% | 1012.7 hPa | 0 mm | - | 66 W/m² | - |
| 1778029924 | 15° C | 58% | 1012.9 hPa | 0 mm | - | 85 W/m² | - |
| 1778029623 | 15° C | 58% | 1012.7 hPa | 0 mm | - | 65 W/m² | - |
| 1778029320 | 15.56° C | 57% | 1012.6 hPa | 0 mm | - | 173 W/m² | - |
* Rain latest hour (hover to see other rain measurements)
** Current wind speed in m/s (hover to see current wind gust speed)